|
Cosmos 1758 - Orbit
|
Pacheco State Park;
13:49:21
| Home | Info | Passes |
|
View from above orbital plane
|
View from above satellite
|
Ground track
|
The orbit data is extracted from the following two-line orbital elements,
1 16791U 86046A 13169.13790500 .00001260 00000-0 10101-3 0 7367
2 16791 082.4719 010.1006 0018227 007.0848 353.0629 14.99188976466457
| Epoch (UTC): | 18 June 2013 03:18:34 |
| Eccentricity: | 0.0018227 |
| inclination: | 82.4719° |
| perigee height: | 557 km |
| apogee height: | 582 km |
| right ascension of ascending node: | 10.1006° |
| argument of perigee: | 7.0848° |
| revolutions per day: | 14.99188976 |
| mean anomaly at epoch: | 353.0629° |
| orbit number at epoch: | 46645 |
The dashed part of the orbit path shows where the satellite is in the earth's shadow,
|
|